CW5752 Weather Reports


time (UTC)temp
C
wind
direction
speed
KPH
gust
KPH
rain 1hr
cm
rain 24hr
cm
rain mn
cm
humidity
%
barometer
mb
20260906122021 23 0.0 0.0 0.00 0.00 0.00 92 1014.2
20260906121021 22 0.0 0.0 0.00 0.00 0.00 92 1014.1
20260906120022 22 0.0 0.0 0.00 0.00 0.00 92 1014.1
20260906115021 23 0.0 0.0 0.00 0.00 0.00 91 1014.1
20260906114021 23 0.0 0.0 0.00 0.00 0.00 91 1014.0
20260906113057 23 0.0 0.0 0.00 0.00 0.00 91 1013.9
20260906112016 23 0.0 0.0 0.00 0.00 0.00 90 1013.9
20260906111041 23 0.0 0.0 0.00 0.00 0.00 90 1013.7
20260906110021 23 0.0 0.0 0.00 0.00 0.00 90 1013.6
20260906105041 23 0.0 0.0 0.00 0.00 0.00 90 1013.4
20260906104021 23 0.0 0.0 0.00 0.00 0.00 89 1013.3
20260906103021 23 0.0 0.0 0.00 0.00 0.00 89 1013.2
20260906102016 23 0.0 0.0 0.00 0.00 0.00 89 1013.1
20260906101022 23 0.0 0.0 0.00 0.00 0.00 89 1013.0
20260906100023 24 0.0 0.0 0.00 0.00 0.00 87 1013.0
20260906095021 25 0.0 0.0 0.00 0.00 0.00 86 1012.8
20260906094021 25 0.0 3.2 0.00 0.00 0.00 85 1012.7
20260906093021 25 0.0 1.6 0.00 0.00 0.00 85 1012.7
20260906092041 25 0.0 0.0 0.00 0.00 0.00 86 1012.6
20260906091036 25 0.0 0.0 0.00 0.00 0.00 87 1012.5
20260906090021 25 0.0 0.0 0.00 0.00 0.00 87 1012.4
20260906085021 25 0.0 0.0 0.00 0.00 0.00 88 1012.3
20260906084021 25 0.0 0.0 0.00 0.00 0.00 87 1012.1
20260906083021 25 0.0 0.0 0.00 0.00 0.00 86 1012.1
20260906082021 26 0.0 0.0 0.00 0.00 0.00 86 1012.2
20260906081016 26 0.0 1.6 0.00 0.00 0.00 85 1012.1
20260906080021 26 0.0 0.0 0.00 0.00 0.00 84 1012.1
20260906075021 26 0.0 0.0 0.00 0.00 0.00 85 1012.2
20260906074021 26 300 0.0 3.2 0.00 0.00 0.00 84 1012.2
20260906073021 26 300 0.0 3.2 0.00 0.00 0.00 84 1012.4
20260906072021 26 0.0 0.0 0.00 0.00 0.00 83 1012.4
20260906071021 27 300 0.0 3.2 0.00 0.00 0.00 82 1012.3
20260906070017 27 0.0 1.6 0.00 0.00 0.00 81 1012.5
20260906065021 27 0.0 3.2 0.00 0.00 0.00 80 1012.6
20260906064021 27 299 0.0 3.2 0.00 0.00 0.00 80 1012.7
20260906063022 27 292 0.0 3.2 0.00 0.00 0.00 80 1012.8
20260906062022 27 274 0.0 1.6 0.00 0.00 0.00 80 1012.8
20260906061022 26 274 0.0 1.6 0.00 0.00 0.00 81 1012.7
20260906060016 26 0.0 1.6 0.00 0.00 0.00 82 1012.7
20260906055036 26 0.0 0.0 0.00 0.00 0.00 82 1012.8
20260906054021 25 0.0 0.0 0.00 0.00 0.00 83 1012.7
20260906053022 25 0.0 0.0 0.00 0.00 0.00 83 1012.7
20260906052021 24 0.0 0.0 0.00 0.00 0.00 84 1012.6
20260906051021 24 0.0 0.0 0.00 0.00 0.00 85 1012.5
20260906050021 25 0.0 0.0 0.00 0.00 0.00 83 1012.4
20260906045020 25 0.0 0.0 0.00 0.00 0.00 81 1012.4
20260906044022 25 0.0 0.0 0.00 0.00 0.00 80 1012.3
20260906043017 25 0.0 0.0 0.00 0.00 0.00 81 1012.2
20260906042102 25 0.0 0.0 0.00 0.00 0.00 82 1012.1
20260906041022 25 0.0 0.0 0.00 0.00 0.00 81 1012.1
20260906040022 25 0.0 0.0 0.00 0.00 0.00 82 1011.9
20260906035022 25 0.0 0.0 0.00 0.00 0.00 81 1011.9
20260906034022 26 0.0 0.0 0.00 0.00 0.00 80 1011.9
20260906033037 26 0.0 0.0 0.00 0.00 0.00 79 1011.8
20260906032037 26 0.0 0.0 0.00 0.00 0.00 78 1011.7
20260906031022 26 0.0 0.0 0.00 0.00 0.00 77 1011.8
20260906030022 27 0.0 0.0 0.00 0.00 0.00 75 1011.6
20260906025022 27 0.0 0.0 0.00 0.00 0.00 72 1011.6
20260906024022 27 0.0 0.0 0.00 0.00 0.00 74 1011.6
20260906023042 27 0.0 0.0 0.00 0.00 0.00 75 1011.6
20260906022017 27 0.0 0.0 0.00 0.00 0.00 74 1011.4
20260906021022 28 0.0 0.0 0.00 0.00 0.00 70 1011.3
20260906020022 28 0.0 0.0 0.00 0.00 0.00 70 1011.2
20260906015022 28 0.0 0.0 0.00 0.00 0.00 70 1011.1
20260906014027 28 0.0 0.0 0.00 0.00 0.00 69 1010.9
20260906013102 28 0.0 0.0 0.00 0.00 0.00 71 1010.8
20260906012022 28 0.0 0.0 0.00 0.00 0.00 67 1010.7
20260906011017 28 0.0 0.0 0.00 0.00 0.00 70 1010.7
20260906010022 29 0.0 0.0 0.00 0.00 0.00 68 1010.7
20260906005048 29 0.0 0.0 0.00 0.00 0.00 68 1010.5
20260906004022 30 274 0.0 3.2 0.00 0.00 0.00 65 1010.5
20260906003042 30 274 0.0 3.2 0.00 0.00 0.00 62 1010.3
20260906002022 30 274 0.0 3.2 0.00 0.00 0.00 62 1010.3
20260906001036 31 274 0.0 3.2 0.00 0.00 0.00 61 1010.3
20260906000042 31 274 0.0 3.2 0.00 0.00 0.00 58 1010.3
20260905235021 32 274 0.0 3.2 0.00 0.00 0.00 57 1010.2
20260905234022 32 274 0.0 3.2 0.00 0.00 0.00 57 1010.3
20260905233021 32 274 0.0 3.2 0.00 0.00 0.00 54 1010.3
20260905232022 33 274 3.2 9.7 0.00 0.00 0.00 52 1010.3
20260905231022 34 272 4.8 12.9 0.00 0.00 0.00 49 1010.2
20260905230016 35 277 3.2 9.7 0.00 0.00 0.00 48 1010.2
20260905225021 36 272 6.4 16.1 0.00 0.00 0.00 46 1010.1
20260905224042 37 318 1.6 4.8 0.00 0.00 0.00 42 1010.0
20260905223021 37 322 1.6 9.7 0.00 0.00 0.00 40 1010.1
20260905222022 37 339 1.6 4.8 0.00 0.00 0.00 41 1010.0
20260905221042 38 343 1.6 6.4 0.00 0.00 0.00 40 1010.0
20260905220017 37 346 0.0 4.8 0.00 0.00 0.00 42 1010.1
20260905215038 37 344 1.6 8.0 0.00 0.00 0.00 43 1010.1
20260905214042 38 297 1.6 8.0 0.00 0.00 0.00 41 1010.1
20260905213021 37 292 3.2 9.7 0.00 0.00 0.00 41 1010.1
20260905212042 38 303 3.2 11.3 0.00 0.00 0.00 41 1010.2
20260905211022 38 320 3.2 14.5 0.00 0.00 0.00 42 1010.3
20260905210042 38 333 3.2 16.1 0.00 0.00 0.00 43 1010.5
20260905205017 38 4 0.0 4.8 0.00 0.00 0.00 41 1010.5
20260905204022 36 0.0 4.8 0.00 0.00 0.00 44 1010.5
20260905203022 38 306 3.2 9.7 0.00 0.00 0.00 39 1010.6
20260905202022 37 268 0.0 3.2 0.00 0.00 0.00 44 1010.8
20260905201022 37 268 0.0 4.8 0.00 0.00 0.00 41 1010.9
20260905200021 37 267 0.0 12.9 0.00 0.00 0.00 46 1011.0
20260905195022 37 319 0.0 8.0 0.00 0.00 0.00 46 1011.0
20260905194016 37 289 0.0 8.0 0.00 0.00 0.00 45 1011.2
20260905193042 36 278 1.6 11.3 0.00 0.00 0.00 45 1011.3
20260905192022 36 277 3.2 14.5 0.00 0.00 0.00 44 1011.4
20260905191022 37 282 8.0 17.7 0.00 0.00 0.00 43 1011.5
20260905190042 37 312 0.0 14.5 0.00 0.00 0.00 43 1011.6
20260905185021 37 297 1.6 12.9 0.00 0.00 0.00 43 1011.7
20260905184017 37 327 0.0 9.7 0.00 0.00 0.00 47 1011.8
20260905183016 37 318 1.6 11.3 0.00 0.00 0.00 42 1012.0
20260905182022 37 331 1.6 8.0 0.00 0.00 0.00 44 1012.1
20260905181022 37 280 1.6 9.7 0.00 0.00 0.00 47 1012.2
20260905180021 37 272 6.4 12.9 0.00 0.00 0.00 43 1012.4
20260905175042 37 273 3.2 11.3 0.00 0.00 0.00 45 1012.4
20260905174022 37 282 3.2 14.5 0.00 0.00 0.00 45 1012.5
20260905173017 36 275 3.2 16.1 0.00 0.00 0.00 43 1012.6
20260905172022 36 278 4.8 14.5 0.00 0.00 0.00 45 1012.7
20260905171022 36 291 3.2 9.7 0.00 0.00 0.00 45 1012.7
20260905170021 36 277 4.8 17.7 0.00 0.00 0.00 47 1012.8
20260905165022 36 286 1.6 17.7 0.00 0.00 0.00 49 1013.1
20260905164022 35 280 6.4 16.1 0.00 0.00 0.00 47 1013.2
20260905163102 35 273 6.4 16.1 0.00 0.00 0.00 49 1013.4
20260905162016 35 276 6.4 17.7 0.00 0.00 0.00 49 1013.6
20260905161022 35 280 3.2 14.5 0.00 0.00 0.00 52 1013.7
20260905160021 34 280 1.6 8.0 0.00 0.00 0.00 54 1013.8
20260905155022 34 272 3.2 12.9 0.00 0.00 0.00 56 1013.8
20260905154104 33 276 6.4 17.7 0.00 0.00 0.00 56 1013.9
20260905153022 33 280 3.2 16.1 0.00 0.00 0.00 55 1013.9
20260905152016 33 279 4.8 14.5 0.00 0.00 0.00 56 1013.9
20260905151016 33 270 1.6 11.3 0.00 0.00 0.00 60 1013.8
20260905150041 32 256 1.6 9.7 0.00 0.00 0.00 59 1013.8
20260905145021 32 267 0.0 9.7 0.00 0.00 0.00 63 1013.7
20260905144021 32 244 3.2 8.0 0.00 0.00 0.00 63 1013.8
20260905143039 31 211 0.0 4.8 0.00 0.00 0.00 63 1013.9
20260905142021 31 211 1.6 3.2 0.00 0.00 0.00 67 1013.9
20260905141016 30 210 0.0 4.8 0.00 0.00 0.00 69 1013.9
20260905140021 30 211 0.0 3.2 0.00 0.00 0.00 73 1014.0
20260905135022 28 0.0 3.2 0.00 0.00 0.00 76 1014.0
20260905134021 28 211 0.0 3.2 0.00 0.00 0.00 79 1014.1
20260905133021 27 211 0.0 3.2 0.00 0.00 0.00 83 1014.1
20260905132022 26 0.0 3.2 0.00 0.00 0.00 85 1014.1
20260905131017 26 0.0 0.0 0.00 0.00 0.00 88 1014.0
20260905130016 25 0.0 0.0 0.00 0.00 0.00 89 1014.0
20260905125021 24 0.0 0.0 0.00 0.00 0.00 92 1013.9
20260905124041 23 0.0 0.0 0.00 0.00 0.00 92 1013.8
20260905123021 23 0.0 0.0 0.00 0.00 0.00 93 1013.7